Flag for Canada Weather past 2 weeks in Hopedale, Newfoundland and Labrador, Canada

Now
55 °F

Cool.


Feels Like: 53 °F
Forecast: N/A
Wind: 9 mph from Southeast

Location: Hopedale

Current Time: Sep 1, 2014 at 6:31:36 PM

Latest Report: Sep 1, 2014 at 5:00 PM


Visibility: N/A

Pressure: 29.95 "Hg

Humidity: 69%

Dew point: 45 °F

Location of HopedaleLocation

Historic Weather in Hopedale — Graph

°F

Hopedale temperature yesterday

Maximum temperature yesterday: 60 °F (at 5:00 PM)
Minimum temperature yesterday: 50 °F (at 6:00 AM)
Average temperature yesterday: 55 °F

Past Weeks' High & Low Weather Summary

 TemperatureHumidityPressure
High78 °F (Aug 24, 1:00 PM)100% (Aug 20, 1:00 AM)30.31 "Hg (Aug 20, 1:00 AM)
Low41 °F (Aug 28, 4:00 AM)44% (Aug 31, 5:00 PM)29.39 "Hg (Aug 27, 12:00 AM)
Average53 °F82%29.95 "Hg
* Reported Aug 17 5:00 PM — Sep 1 5:00 PM, Hopedale, Weather by CustomWeather, © 2014

Note: Actual official high and low records may vary slightly from our data, if they occured in-between our weather recording intervals... More about our weather records

Advertising

Hopedale weather history for previous 24 hours

 ConditionsComfort  
Time TempWeatherWind HumidityBarometerVisibility
5:00 PM
Sep 1
55 °FCool.9 mph69%29.95 "HgN/A
4:00 PM53 °FCool.5 mph77%29.94 "HgN/A
3:00 PM56 °FCool.8 mph68%29.93 "HgN/A
2:00 PM61 °FRefreshingly cool.10 mph50%29.93 "HgN/A
1:00 PM59 °FRefreshingly cool.10 mph55%29.94 "HgN/A
12:00 PM59 °FRefreshingly cool.12 mph56%29.94 "HgN/A
11:00 AM58 °FRefreshingly cool.9 mph57%29.92 "HgN/A
10:00 AM56 °FCool.12 mph61%29.90 "HgN/A
9:00 AM54 °FCool.20 mph65%29.89 "HgN/A
8:00 AM52 °FCool.15 mph72%29.88 "HgN/A
7:00 AM50 °FCool.10 mph79%29.88 "HgN/A
6:00 AM49 °FCool.16 mph80%29.85 "HgN/A
5:00 AM49 °FCool.14 mph78%29.83 "HgN/A
4:00 AM48 °FCool.12 mph78%29.82 "HgN/A
3:00 AM50 °FCool.15 mph73%29.80 "HgN/A
2:00 AM51 °FCool.15 mph71%29.78 "HgN/A
1:00 AM51 °FCool.13 mph69%29.77 "HgN/A
12:00 AM51 °FCool.10 mph69%29.77 "HgN/A
11:00 PM
Aug 31
52 °FCool.13 mph70%29.76 "HgN/A
10:00 PM53 °FCool.15 mph65%29.75 "HgN/A
9:00 PM55 °FCool.16 mph63%29.73 "HgN/A
8:00 PM56 °FRefreshingly cool.16 mph58%29.70 "HgN/A
7:00 PM58 °FRefreshingly cool.14 mph53%29.68 "HgN/A
6:00 PM59 °FRefreshingly cool.16 mph46%29.66 "HgN/A
Weather by CustomWeather, © 2014

See weather overviewHow to use our weather pages